Regional Weather Roundup
Issued by NWS

Home | Current Version | Previous Version | Text Only | Print | Product List | Glossary On
Versions: 1 2 3 4 5 6 7 8 9 10 11 12 13 14 15 16 17 18 19 20 21 22 23 24 25 26 27 28 29 30 31 32 33 34 35 36 37 38 39 40 41 42 43 44 45 46 47 48 49 50
039
ASUS44 KFWD 250510
RWRTX
NORTH TEXAS HOURLY WEATHER ROUNDUP
NATIONAL WEATHER SERVICE FORT WORTH TX
1200 AM CDT THU MAY 25 2017

NOTE: "FAIR" INDICATES FEW OR NO CLOUDS BELOW 12,000 FEET WITH NO
SIGNIFICANT WEATHER AND/OR OBSTRUCTIONS TO VISIBILITY.

TXZ118-119-250600-
DALLAS/FORT WORTH METROPLEX

CITY           SKY/WX    TMP DP  RH WIND       PRES   REMARKS
DFW AIRPORT    CLEAR     67  49  52 SE9       29.69F
DALLAS LOVE    CLEAR     68  48  48 SE10      29.71S
FTW MEACHAM    CLEAR     69  50  50 SE8       29.70R
DAL-EXECUTIVE  CLEAR     64  50  60 SE6       29.71S
FTW-ALLIANCE   CLEAR     66  48  52 SE7       29.70S
FTW-NAS-JRB    CLEAR     70  49  47 SE5       29.70S
FTW-SPINKS     CLEAR     63  50  63 S3        29.72S
ARLINGTON      CLEAR     62  52  69 SE5       29.71S
GRAND PRAIRIE  CLEAR     66  47  49 E3        29.73R
ADDISON        CLEAR     68  48  47 E8        29.73S
MESQUITE       CLEAR     60  51  72 SE5       29.73S
LANCASTER      CLEAR     61  51  69 CALM      29.73S
$$

TXZ091>094-102>105-117-120-121-131>134-250600-
NORTH CENTRAL TEXAS

CITY           SKY/WX    TMP DP  RH WIND       PRES   REMARKS
SHRMAN/DENISON CLEAR     61  48  62 CALM      29.73S
GAINESVILLE    CLEAR     59  49  68 SE6       29.73S
BOWIE          CLEAR     61  51  70 CALM      29.70S
BRIDGEPORT     CLEAR     64  48  57 SE6       29.71S
DECATUR        CLEAR     65  48  53 E8        29.71S
DENTON         CLEAR     64  53  67 SE8       29.70S
MCKINNEY       CLEAR     62  52  69 SE5       29.72S
BONHAM         CLEAR     57  48  72 E5        29.74S
GREENVILLE     CLEAR     59  52  77 CALM      29.74S
ROCKWALL       CLEAR     64  49  58 SE7       29.73S
TERRELL        CLEAR     63  49  60 E5        29.73F
WAXAHACHIE     CLEAR     62  53  72 SE3       29.74R
CLEBURNE       CLEAR     64  54  68 S8        29.73S
GRANBURY       CLEAR     66  53  61 SE6       29.71S
$$

TXZ083>090-098>101-113>116-127>130-139>142-154-155-250600-
WESTERN NORTH TEXAS

CITY           SKY/WX    TMP DP  RH WIND       PRES   REMARKS
WICHITA FALLS  CLEAR     63  49  60 SE10      29.67R
WF-KICKAPOO    CLEAR     64  49  57 SE8G18    29.69S
VERNON         CLEAR     67  46  47 E9        29.66S
ABILENE        CLEAR     69  48  47 S12       29.70S
ABILENE-DYESS  CLEAR     70  49  48 S13       29.67F
GRAHAM         CLEAR     65  51  60 SE5       29.66S
BRECKENRIDGE   CLEAR     68  49  49 S12       29.66F
CISCO          CLEAR     66  50  55 S10       29.71F
EASTLAND       CLEAR     58  54  86 S5        29.70F
RANGER         CLEAR     67  49  50 S7        29.71F
MINERAL WELLS  CLEAR     63  50  62 SE12      29.67F
STEPHENVILLE   CLEAR     63  52  68 CALM      29.74F
COMANCHE       CLEAR     63  52  65 S9        29.73S
BROWNWOOD      PTCLDY    61  54  77 S5        29.73F
COLEMAN        CLEAR     66  48  52 S7        29.74S
$$

TXZ143>147-156>162-174-175-250600-
CENTRAL TEXAS

CITY           SKY/WX    TMP DP  RH WIND       PRES   REMARKS
WACO           CLEAR     68  54  60 S9        29.73S
WACO-MCGREGOR  CLEAR     65  53  65 S8        29.74S
HILLSBORO      CLEAR     66  52  60 SE6       29.72S
CORSICANA      CLEAR     64  55  72 SE7       29.74S
MEXIA          CLEAR     61  55  81 S12       29.74S
HEARNE         CLEAR     64  53  66 SE3       29.76S
CAMERON        CLEAR     67  52  56 S7        29.76S
TEMPLE         CLEAR     65  52  62 S8        29.76R
KILLEEN        CLEAR     66  51  59 S7        29.74F
KILLEEN-SKYLRK CLEAR     65  53  65 S5        29.75S
FORT HOOD      CLEAR     66  52  60 SE6       29.72S
HAMILTON       CLEAR     64  52  64 S8        29.75S
LAMPASAS       CLEAR     64  53  67 CALM      29.75S
$$

TXZ095>097-106>112-122>126-135>138-148>153-164>167-250600-
EAST TEXAS

CITY           SKY/WX    TMP DP  RH WIND       PRES   REMARKS
PARIS          CLEAR     55  48  76 E7        29.75S
SULPHUR SPRNGS CLEAR     60  50  69 SE6       29.76S
MOUNT PLEASANT CLEAR     56  54  95 S3        29.77S
GILMER         CLEAR     57  53  87 CALM      29.77R
MINEOLA        CLEAR     55  54  94 CALM      29.75S
TYLER          CLEAR     61  54  77 SE5       29.74F
LONGVIEW       CLEAR     58  57  97 CALM      29.76R
MARSHALL       CLEAR     53  50  92 CALM      29.79S
ATHENS         CLEAR     55  55 100 CALM      29.74R
PALESTINE      CLEAR     58  56  92 CALM      29.76S
JACKSONVILLE   CLEAR     61  51  68 CALM      29.78S
HENDERSON      CLEAR     55  55 100 CALM      29.77F
CENTER         CLEAR     58  57  96 N3        29.79S
NACOGDOCHES    CLEAR     54  50  87 CALM      29.75F
LUFKIN         CLEAR     60  55  83 CALM      29.76S
$$

SUPPLEMENTAL OBSERVATIONS (NWS FORT WORTH AREA)

CITY           SKY/WX    TMP DP  RH WIND       PRES   REMARKS
CADDO GRASSLND   N/A     61  50  67 SE2         N/A
LBJ GRASSLAND    N/A     66  46  48 E8          N/A
MCGREGOR         N/A     68  48  49 S9          N/A
$$

SUPPLEMENTAL OBSERVATIONS (NWS NORMAN AREA)

CITY           SKY/WX    TMP DP  RH WIND       PRES   REMARKS
$$

SUPPLEMENTAL OBSERVATIONS (NWS SAN ANGELO AREA)

CITY           SKY/WX    TMP DP  RH WIND       PRES   REMARKS
HAMBY            N/A     70  48  46 S10         N/A
$$

SUPPLEMENTAL OBSERVATIONS (NWS SHREVEPORT AREA)

CITY           SKY/WX    TMP DP  RH WIND       PRES   REMARKS
LUFKIN           N/A     57  54  88 MISG        N/A
N SABINE NF      N/A     54  52  94 MISG        N/A
$$

SUPPLEMENTAL OBSERVATIONS ARE A COLLECTION OF AUTOMATED INSTRUMENTS
THAT ARE MAINTAINED BY A VARIETY OF FEDERAL AND STATE AGENCIES.
CERTAIN ELEMENTS...SUCH AS HUMIDITY VALUES AND SUSTAINED WIND
SPEEDS...MAY BE APPROXIMATED.





USA.gov is the U.S. government's official web portal to all federal, state and local government web resources and services.